Location: Wawayanda State Park
(41.1833°N, 74.4333°W)
Time: 10:53:09
(UTC-04:00)

Landsat 7 - Visible Passes

Search period start: 25 May 2016 00:00
Search period end: 04 June 2016 00:00
Orbit: 701 x 704 km, 98.2° (Epoch: 25 May)

Date Brightness Start Highest point End Pass type
(mag) Time Alt. Az. Time Alt. Az. Time Alt. Az.
25 May 6.1 21:04:17 10° ENE 21:04:36 10° ENE 21:04:55 10° NE visible
25 May 3.7 22:40:04 45° SSE 22:41:33 86° ENE 22:46:20 10° NNW visible
26 May 5.2 21:44:24 17° ESE 21:46:51 25° ENE 21:50:43 10° NNE visible
26 May 4.9 23:23:17 30° SW 23:24:25 34° W 23:28:46 10° NNW visible
27 May 3.9 22:27:37 37° SE 22:29:22 65° ENE 22:34:06 10° N visible
28 May 6.1 00:06:30 12° WSW 00:07:32 13° W 00:09:43 10° WNW visible
28 May 5.5 21:31:58 12° ESE 21:34:46 20° ENE 21:38:08 10° NNE visible
28 May 4.5 23:10:51 36° SW 23:12:09 46° W 23:16:45 10° NNW visible
29 May 4.2 22:15:11 30° SE 22:17:13 49° ENE 22:21:48 10° N visible
29 May 5.8 23:54:04 16° WSW 23:55:12 17° W 23:58:21 10° NW visible
30 May 5.8 21:20:01 10° E 21:22:43 15° ENE 21:25:25 10° NNE visible
30 May 4.1 22:58:25 40° SSW 22:59:55 62° W 23:04:39 10° NNW visible
31 May 4.6 22:02:46 23° ESE 22:05:05 37° ENE 22:09:27 10° N visible
31 May 5.5 23:41:39 21° WSW 23:42:54 23° W 23:46:40 10° NW visible
01 Jun 6.0 21:09:03 10° E 21:10:41 12° ENE 21:12:17 10° NE visible
01 Jun 3.8 22:46:00 40° S 22:47:43 83° WSW 22:52:30 10° NNW visible
02 Jun 5.0 21:50:21 17° ESE 21:52:58 28° ENE 21:57:01 10° N visible
02 Jun 5.2 23:29:14 26° SW 23:30:37 30° W 23:34:48 10° NW visible
03 Jun 3.8 22:33:35 36° SSE 22:35:32 75° ENE 22:40:17 10° N visible
